FDX92 KIND-EBLG

Flight info

Callsign FDX92
Flight time 7h 49m
Altitude 31000
Route MAREO5 BDOCK DCT DJB DCT DERLO Q804 POLTY DCT OLASI DCT DATAB DCT IGSAS DCT ANCER N817A IRLOK/M084F330 DCT 5630N05000W 5730N04000W 5730N03000W 5630N02000W DCT ETARI DCT MOGLO/N0481F330 DCT DEXEN UY124 DOLOP DCT KEPAD L15 BIG Q70 DET L6 DVR/N0450F230 L18 VABIK Q70 KOK
Aircraft B77L/H-SDE1E2E3FGHIJ2J3J4J5M1RWXY/LB1D1

Departure

Time 2026-04-29 20:21
Airport Indianapolis International Airport (KIND)

Arrival

Time 2026-04-30 04:11
Airport Liège Airport (EBLG)
Time Latitude Longitude Altitude Speed Heading
2026-04-29 20:07 39.71753 -86.27188 790 ft 0 kts 134°
2026-04-29 20:14 39.71757 -86.27193 790 ft 4 kts 132°
2026-04-29 20:14 39.71772 -86.27221 789 ft 4 kts 110°
2026-04-29 20:14 39.71776 -86.27254 790 ft 4 kts 78°
2026-04-29 20:15 39.71767 -86.27280 791 ft 2 kts 44°
2026-04-29 20:15 39.71764 -86.27284 791 ft 1 kts 44°
2026-04-29 20:17 39.71764 -86.27283 791 ft 1 kts 44°
2026-04-29 20:17 39.71799 -86.27239 789 ft 9 kts 45°
2026-04-29 20:17 39.71860 -86.27224 786 ft 10 kts 333°
2026-04-29 20:18 39.71913 -86.27283 787 ft 10 kts 314°
2026-04-29 20:18 39.71963 -86.27348 788 ft 10 kts 315°
2026-04-29 20:18 39.72012 -86.27413 788 ft 10 kts 314°
2026-04-29 20:18 39.72059 -86.27478 789 ft 10 kts 306°
2026-04-29 20:19 39.72048 -86.27560 792 ft 10 kts 226°
2026-04-29 20:19 39.72000 -86.27627 792 ft 10 kts 224°
2026-04-29 20:19 39.71949 -86.27691 791 ft 10 kts 224°
2026-04-29 20:19 39.71898 -86.27755 791 ft 10 kts 223°
2026-04-29 20:20 39.71873 -86.27832 792 ft 10 kts 293°
2026-04-29 20:20 39.71920 -86.27901 791 ft 10 kts 315°
2026-04-29 20:20 39.71954 -86.27973 789 ft 9 kts 258°
2026-04-29 20:20 39.71911 -86.28037 788 ft 10 kts 226°
2026-04-29 20:21 39.71791 -86.28191 786 ft 58 kts 223°
2026-04-29 20:21 39.71294 -86.28821 788 ft 140 kts 225°
2026-04-29 20:21 39.70411 -86.29949 842 ft 206 kts 225°
2026-04-29 20:21 39.69407 -86.31252 1770 ft 198 kts 225°
2026-04-29 20:22 39.68423 -86.32552 2429 ft 209 kts 226°
2026-04-29 20:22 39.67405 -86.33950 2840 ft 218 kts 227°
2026-04-29 20:22 39.66295 -86.35443 3076 ft 241 kts 225°
2026-04-29 20:22 39.64929 -86.36734 3417 ft 252 kts 197°
2026-04-29 20:23 39.63197 -86.36782 3836 ft 262 kts 161°
2026-04-29 20:23 39.61693 -86.35449 4414 ft 269 kts 126°
2026-04-29 20:23 39.61010 -86.33196 5038 ft 275 kts 92°
2026-04-29 20:23 39.61288 -86.30743 5691 ft 277 kts 72°
2026-04-29 20:24 39.61879 -86.28339 6298 ft 283 kts 72°
2026-04-29 20:24 39.62485 -86.25916 6993 ft 285 kts 72°
2026-04-29 20:24 39.63112 -86.23464 7675 ft 288 kts 72°
2026-04-29 20:24 39.63753 -86.20990 8321 ft 291 kts 71°
2026-04-29 20:25 39.64405 -86.18489 8947 ft 294 kts 71°
2026-04-29 20:25 39.64995 -86.16000 9507 ft 297 kts 74°
2026-04-29 20:25 39.65623 -86.13400 10095 ft 301 kts 71°
2026-04-29 20:25 39.66299 -86.10859 10532 ft 311 kts 71°
2026-04-29 20:26 39.67054 -86.08056 10669 ft 332 kts 71°
2026-04-29 20:26 39.67832 -86.05155 10857 ft 349 kts 71°
2026-04-29 20:26 39.68641 -86.02094 11005 ft 368 kts 71°
2026-04-29 20:26 39.69480 -85.98879 11229 ft 383 kts 71°
2026-04-29 20:27 39.70341 -85.95558 11642 ft 392 kts 71°
2026-04-29 20:27 39.70920 -85.93318 11975 ft 396 kts 71°
2026-04-29 20:27 39.72081 -85.88795 12733 ft 401 kts 72°
2026-04-29 20:27 39.72966 -85.85344 13299 ft 404 kts 72°
2026-04-29 20:28 39.73799 -85.81862 13749 ft 406 kts 77°
2026-04-29 20:28 39.74319 -85.78229 14117 ft 412 kts 81°
2026-04-29 20:28 39.74823 -85.74549 14623 ft 415 kts 78°
2026-04-29 20:28 39.75487 -85.70892 15140 ft 417 kts 75°
2026-04-29 20:29 39.76316 -85.67265 15602 ft 420 kts 72°
2026-04-29 20:29 39.77261 -85.63656 16022 ft 424 kts 70°
2026-04-29 20:29 39.78259 -85.60089 16422 ft 427 kts 70°
2026-04-29 20:29 39.79301 -85.56465 16818 ft 430 kts 69°
2026-04-29 20:30 39.80354 -85.52812 17204 ft 433 kts 70°
2026-04-29 20:30 39.81410 -85.49133 17574 ft 435 kts 70°
2026-04-29 20:30 39.82466 -85.45430 17923 ft 438 kts 70°
2026-04-29 20:30 39.83523 -85.41701 18261 ft 441 kts 70°
2026-04-29 20:31 39.84585 -85.37944 18584 ft 443 kts 70°
2026-04-29 20:31 39.85652 -85.34164 18893 ft 446 kts 70°
2026-04-29 20:31 39.86722 -85.30367 19190 ft 448 kts 70°
2026-04-29 20:31 39.87709 -85.26508 19466 ft 450 kts 75°
2026-04-29 20:32 39.88376 -85.22576 19731 ft 452 kts 81°
2026-04-29 20:32 39.88721 -85.18501 19993 ft 454 kts 86°
2026-04-29 20:32 39.88920 -85.14386 20230 ft 456 kts 86°
2026-04-29 20:32 39.89051 -85.11656 20386 ft 458 kts 86°
2026-04-29 20:33 39.89324 -85.06104 20712 ft 460 kts 86°
2026-04-29 20:33 39.89537 -85.01937 20952 ft 462 kts 86°
2026-04-29 20:33 39.89756 -84.97753 21183 ft 464 kts 86°
2026-04-29 20:33 39.89978 -84.93556 21407 ft 466 kts 86°
2026-04-29 20:34 39.90199 -84.89398 21621 ft 468 kts 86°
2026-04-29 20:34 39.90423 -84.85161 21834 ft 469 kts 86°
2026-04-29 20:34 39.90645 -84.80912 22040 ft 471 kts 86°
2026-04-29 20:34 39.90868 -84.76646 22243 ft 473 kts 86°
2026-04-29 20:35 39.91243 -84.72403 22359 ft 474 kts 78°
2026-04-29 20:35 39.92279 -84.68315 22479 ft 477 kts 65°
2026-04-29 20:35 39.93906 -84.64554 22681 ft 478 kts 55°
2026-04-29 20:35 39.95931 -84.61127 22826 ft 478 kts 51°
2026-04-29 20:36 39.97976 -84.57771 22949 ft 480 kts 52°
2026-04-29 20:36 40.00051 -84.54343 23122 ft 482 kts 52°
2026-04-29 20:36 40.02118 -84.50900 23303 ft 483 kts 52°
2026-04-29 20:36 40.04189 -84.47424 23388 ft 487 kts 52°
2026-04-29 20:37 40.06262 -84.43926 23584 ft 487 kts 52°
2026-04-29 20:37 40.08331 -84.40423 23821 ft 487 kts 52°
2026-04-29 20:37 40.10396 -84.36914 24009 ft 488 kts 52°
2026-04-29 20:37 40.12464 -84.33398 24149 ft 489 kts 52°
2026-04-29 20:38 40.14540 -84.29861 24277 ft 491 kts 52°
2026-04-29 20:38 40.16596 -84.26357 24412 ft 493 kts 52°
2026-04-29 20:38 40.18682 -84.22798 24559 ft 494 kts 52°
2026-04-29 20:38 40.20773 -84.19227 24641 ft 496 kts 52°
2026-04-29 20:39 40.22875 -84.15634 24761 ft 498 kts 52°
2026-04-29 20:39 40.24919 -84.11978 24943 ft 497 kts 56°
2026-04-29 20:39 40.26815 -84.08193 25108 ft 498 kts 57°
2026-04-29 20:39 40.28705 -84.04399 25332 ft 497 kts 56°
2026-04-29 20:40 40.30651 -84.00694 25450 ft 495 kts 54°
2026-04-29 20:40 40.32671 -83.97026 25461 ft 494 kts 54°
2026-04-29 20:40 40.34677 -83.93439 25458 ft 494 kts 53°
2026-04-29 20:40 40.36750 -83.89840 25475 ft 495 kts 52°
2026-04-29 20:41 40.38852 -83.86286 25503 ft 495 kts 52°
2026-04-29 20:41 40.40977 -83.82710 25530 ft 498 kts 52°
2026-04-29 20:41 40.43110 -83.79106 25555 ft 502 kts 52°
2026-04-29 20:41 40.45250 -83.75469 25604 ft 504 kts 52°
2026-04-29 20:42 40.47390 -83.71813 25712 ft 505 kts 52°
2026-04-29 20:42 40.49526 -83.68150 25848 ft 505 kts 52°
2026-04-29 20:42 40.51632 -83.64527 25972 ft 506 kts 52°
2026-04-29 20:42 40.53768 -83.60846 26077 ft 507 kts 53°
2026-04-29 20:43 40.55905 -83.57161 26169 ft 508 kts 53°
2026-04-29 20:43 40.58050 -83.53457 26251 ft 509 kts 53°
2026-04-29 20:43 40.60199 -83.49744 26314 ft 511 kts 53°
2026-04-29 20:43 40.62356 -83.46012 26368 ft 512 kts 53°
2026-04-29 20:44 40.64520 -83.42264 26336 ft 516 kts 53°
2026-04-29 20:44 40.66686 -83.38509 26566 ft 513 kts 53°
2026-04-29 20:44 40.68840 -83.34769 26751 ft 512 kts 53°
2026-04-29 20:44 40.70990 -83.31032 26833 ft 513 kts 53°
2026-04-29 20:45 40.73119 -83.27329 26847 ft 515 kts 53°
2026-04-29 20:45 40.75284 -83.23555 26931 ft 515 kts 53°
2026-04-29 20:45 40.77445 -83.19786 27062 ft 515 kts 53°
2026-04-29 20:45 40.79608 -83.16008 27103 ft 517 kts 53°
2026-04-29 20:46 40.81774 -83.12217 27413 ft 519 kts 50°
2026-04-29 20:46 40.83969 -83.08373 27482 ft 528 kts 49°
2026-04-29 20:46 40.86190 -83.04485 27788 ft 531 kts 49°
2026-04-29 20:46 40.88470 -83.00656 28249 ft 529 kts 44°
2026-04-29 20:47 40.91020 -82.97182 28633 ft 525 kts 38°
2026-04-29 20:47 40.93793 -82.94052 29005 ft 523 kts 33°
2026-04-29 20:47 40.96715 -82.91317 29375 ft 520 kts 27°
2026-04-29 20:47 40.98774 -82.89611 29624 ft 519 kts 27°
2026-04-29 20:48 41.02848 -82.86277 30127 ft 519 kts 26°
2026-04-29 20:48 41.05919 -82.83763 30463 ft 518 kts 26°
2026-04-29 20:48 41.08982 -82.81237 30770 ft 519 kts 27°
2026-04-29 20:48 41.12043 -82.78696 31056 ft 519 kts 27°
2026-04-29 20:49 41.15101 -82.76142 31369 ft 520 kts 27°
2026-04-29 20:49 41.18162 -82.73574 31640 ft 521 kts 27°
2026-04-29 20:49 41.21181 -82.71034 31923 ft 521 kts 27°
2026-04-29 20:49 41.24241 -82.68455 32197 ft 521 kts 27°
2026-04-29 20:50 41.27300 -82.65876 32464 ft 521 kts 27°
2026-04-29 20:50 41.30360 -82.63293 32731 ft 521 kts 27°
2026-04-29 20:50 41.33417 -82.60710 33009 ft 521 kts 28°
2026-04-29 20:50 41.36484 -82.58117 33306 ft 521 kts 28°
2026-04-29 20:51 41.39539 -82.55532 33572 ft 521 kts 27°
2026-04-29 20:51 41.42597 -82.52941 33784 ft 521 kts 27°
2026-04-29 20:51 41.45660 -82.50344 33962 ft 523 kts 27°
2026-04-29 20:51 41.48690 -82.47773 34091 ft 524 kts 27°
2026-04-29 20:52 41.51773 -82.45153 34211 ft 526 kts 28°
2026-04-29 20:52 41.54861 -82.42525 34377 ft 527 kts 28°
2026-04-29 20:52 41.57949 -82.39894 34514 ft 528 kts 28°
2026-04-29 20:52 41.61048 -82.37251 34610 ft 529 kts 28°
2026-04-29 20:53 41.67275 -82.31929 34788 ft 532 kts 28°
2026-04-29 20:53 41.73491 -82.26605 34916 ft 535 kts 29°
2026-04-29 20:54 41.82859 -82.18554 34904 ft 532 kts 29°
2026-04-29 20:55 41.89072 -82.13200 34906 ft 529 kts 29°
2026-04-29 20:55 41.95214 -82.07898 34927 ft 528 kts 29°
2026-04-29 20:56 42.01384 -82.02558 34916 ft 527 kts 30°
2026-04-29 20:56 42.07548 -81.97210 34909 ft 527 kts 30°
2026-04-29 20:57 42.13711 -81.91851 34925 ft 528 kts 30°
2026-04-29 20:57 42.19841 -81.86508 34907 ft 529 kts 30°
2026-04-29 20:58 42.26020 -81.81110 34913 ft 530 kts 30°
2026-04-29 20:58 42.32207 -81.75691 34924 ft 530 kts 30°
2026-04-29 20:59 42.38395 -81.70258 34906 ft 531 kts 30°
2026-04-29 20:59 42.44584 -81.64812 34892 ft 530 kts 31°
2026-04-29 21:00 42.50720 -81.59399 34912 ft 530 kts 31°
2026-04-29 21:00 42.56901 -81.53933 34916 ft 530 kts 31°
2026-04-29 21:01 42.63072 -81.48463 34917 ft 530 kts 31°
2026-04-29 21:01 42.69243 -81.42981 34904 ft 530 kts 31°
2026-04-29 21:02 42.75364 -81.37530 34915 ft 530 kts 31°
2026-04-29 21:02 42.81532 -81.32023 34914 ft 529 kts 31°
2026-04-29 21:03 42.87682 -81.26518 34900 ft 529 kts 31°
2026-04-29 21:03 42.93829 -81.21003 34891 ft 529 kts 31°
2026-04-29 21:04 42.98941 -81.16406 34890 ft 529 kts 31°
2026-04-29 21:04 43.05997 -81.09801 34883 ft 530 kts 37°
2026-04-29 21:05 43.11347 -81.02866 34899 ft 531 kts 46°
2026-04-29 21:05 43.16357 -80.95428 34901 ft 531 kts 47°
2026-04-29 21:06 43.20533 -80.89244 34887 ft 532 kts 46°
2026-04-29 21:06 43.26400 -80.80636 34934 ft 532 kts 46°
2026-04-29 21:07 43.31463 -80.73222 34919 ft 533 kts 46°
2026-04-29 21:07 43.35670 -80.67046 34913 ft 533 kts 46°
2026-04-29 21:08 43.40727 -80.59595 34889 ft 533 kts 47°
2026-04-29 21:08 43.45783 -80.52126 34870 ft 533 kts 47°
2026-04-29 21:09 43.50796 -80.44701 34880 ft 533 kts 47°
2026-04-29 21:09 43.55836 -80.37216 34881 ft 533 kts 47°
2026-04-29 21:10 43.60874 -80.29715 34918 ft 533 kts 47°
2026-04-29 21:10 43.65909 -80.22198 34930 ft 533 kts 47°
2026-04-29 21:11 43.70942 -80.14663 34905 ft 533 kts 47°
2026-04-29 21:11 43.75935 -80.07168 34931 ft 534 kts 47°
2026-04-29 21:12 43.80961 -79.99606 34949 ft 534 kts 47°
2026-04-29 21:12 43.85990 -79.92023 34937 ft 534 kts 47°
2026-04-29 21:13 43.91009 -79.84433 34926 ft 534 kts 47°
2026-04-29 21:13 43.96024 -79.76829 34917 ft 534 kts 48°
2026-04-29 21:14 44.00995 -79.69269 34938 ft 534 kts 48°
2026-04-29 21:14 44.05992 -79.61651 34936 ft 534 kts 48°
2026-04-29 21:15 44.10989 -79.54011 34931 ft 533 kts 48°
2026-04-29 21:15 44.15975 -79.46368 34945 ft 534 kts 48°
2026-04-29 21:16 44.20931 -79.38749 34918 ft 534 kts 48°
2026-04-29 21:16 44.25918 -79.31060 34925 ft 534 kts 48°
2026-04-29 21:17 44.30900 -79.23358 34918 ft 534 kts 49°
2026-04-29 21:17 44.35387 -79.15111 34922 ft 533 kts 57°
2026-04-29 21:18 44.39499 -79.06575 34903 ft 533 kts 57°
2026-04-29 21:18 44.43635 -78.97967 34903 ft 534 kts 57°
2026-04-29 21:19 44.47808 -78.89358 34917 ft 535 kts 57°
2026-04-29 21:19 44.52000 -78.80730 34898 ft 536 kts 57°
2026-04-29 21:20 44.56194 -78.72076 34894 ft 537 kts 57°
2026-04-29 21:20 44.60351 -78.63467 34889 ft 536 kts 57°
2026-04-29 21:21 44.64527 -78.54789 34908 ft 536 kts 57°
2026-04-29 21:21 44.68689 -78.46111 34885 ft 536 kts 57°
2026-04-29 21:22 44.72843 -78.37425 34891 ft 535 kts 57°
2026-04-29 21:22 44.76958 -78.28795 34893 ft 535 kts 57°
2026-04-29 21:23 44.81095 -78.20092 34886 ft 535 kts 57°
2026-04-29 21:23 44.85221 -78.11386 34897 ft 534 kts 57°
2026-04-29 21:24 44.89336 -78.02677 34882 ft 533 kts 57°
2026-04-29 21:24 44.93410 -77.94029 34896 ft 533 kts 57°
2026-04-29 21:25 44.97503 -77.85315 34893 ft 532 kts 57°
2026-04-29 21:25 45.01584 -77.76599 34887 ft 531 kts 57°
2026-04-29 21:26 45.05650 -77.67887 34900 ft 530 kts 58°
2026-04-29 21:26 45.09679 -77.59229 34882 ft 531 kts 58°
2026-04-29 21:27 45.13732 -77.50495 34920 ft 530 kts 58°
2026-04-29 21:27 45.17780 -77.41742 34899 ft 532 kts 58°
2026-04-29 21:28 45.21827 -77.32965 34892 ft 531 kts 58°
2026-04-29 21:28 45.25863 -77.24186 34916 ft 531 kts 58°
2026-04-29 21:29 45.29865 -77.15454 34890 ft 531 kts 58°
2026-04-29 21:29 45.33892 -77.06639 34901 ft 532 kts 58°
2026-04-29 21:30 45.37913 -76.97811 34895 ft 532 kts 58°
2026-04-29 21:30 45.41931 -76.88962 34927 ft 533 kts 58°
2026-04-29 21:31 45.45921 -76.80144 34898 ft 533 kts 58°
2026-04-29 21:31 45.49933 -76.71254 34908 ft 533 kts 58°
2026-04-29 21:32 45.53936 -76.62356 34882 ft 533 kts 59°
2026-04-29 21:32 45.57933 -76.53438 34917 ft 534 kts 58°
2026-04-29 21:33 45.61903 -76.44557 34887 ft 534 kts 59°
2026-04-29 21:33 45.65892 -76.35604 34911 ft 534 kts 59°
2026-04-29 21:34 45.69875 -76.26634 34910 ft 535 kts 59°
2026-04-29 21:34 45.73854 -76.17647 34909 ft 535 kts 59°
2026-04-29 21:35 45.77823 -76.08651 34881 ft 533 kts 59°
2026-04-29 21:35 45.81777 -75.99662 34880 ft 533 kts 59°
2026-04-29 21:36 45.85693 -75.90732 34884 ft 532 kts 59°
2026-04-29 21:36 45.89632 -75.81731 34885 ft 532 kts 58°
2026-04-29 21:37 45.93851 -75.72987 34877 ft 533 kts 55°
2026-04-29 21:37 45.98215 -75.64370 34891 ft 534 kts 55°
2026-04-29 21:38 46.02534 -75.55773 34873 ft 534 kts 55°
2026-04-29 21:38 46.06860 -75.47054 34883 ft 536 kts 55°
2026-04-29 21:39 46.11181 -75.38296 34876 ft 537 kts 55°
2026-04-29 21:39 46.15512 -75.29501 34876 ft 538 kts 55°
2026-04-29 21:40 46.19813 -75.20738 34872 ft 539 kts 55°
2026-04-29 21:40 46.24142 -75.11892 34890 ft 539 kts 55°
2026-04-29 21:41 46.28458 -75.03045 34856 ft 538 kts 55°
2026-04-29 21:41 46.32614 -74.94089 34867 ft 535 kts 61°
2026-04-29 21:42 46.35734 -74.84370 34874 ft 531 kts 70°
2026-04-29 21:42 46.38392 -74.74467 34895 ft 531 kts 70°
2026-04-29 21:43 46.41120 -74.64535 34883 ft 530 kts 69°
2026-04-29 21:43 46.43873 -74.54620 34873 ft 530 kts 69°
2026-04-29 21:44 46.46973 -74.44927 34885 ft 531 kts 60°
2026-04-29 21:44 46.51112 -74.36151 34887 ft 530 kts 52°
2026-04-29 21:45 46.55576 -74.27629 34902 ft 530 kts 52°
2026-04-29 21:45 46.60020 -74.19065 34897 ft 531 kts 52°
2026-04-29 21:46 46.64425 -74.10455 34885 ft 531 kts 53°
2026-04-29 21:46 46.68813 -74.01819 34905 ft 530 kts 53°
2026-04-29 21:47 46.73160 -73.93239 34884 ft 529 kts 53°
2026-04-29 21:47 46.77519 -73.84612 34889 ft 528 kts 53°
2026-04-29 21:48 46.81861 -73.75995 34892 ft 526 kts 53°
2026-04-29 21:48 46.86187 -73.67384 34904 ft 525 kts 53°
2026-04-29 21:49 46.90468 -73.58837 34905 ft 524 kts 53°
2026-04-29 21:49 46.94769 -73.50223 34895 ft 524 kts 53°
2026-04-29 21:50 46.99055 -73.41610 34900 ft 523 kts 53°
2026-04-29 21:50 47.03333 -73.32990 34904 ft 522 kts 53°
2026-04-29 21:51 47.07568 -73.24427 34893 ft 522 kts 53°
2026-04-29 21:51 47.13939 -73.11498 34896 ft 520 kts 53°
2026-04-29 21:52 47.18171 -73.02874 34908 ft 520 kts 53°
2026-04-29 21:52 47.22392 -72.94249 34904 ft 520 kts 53°
2026-04-29 21:53 47.26578 -72.85665 34898 ft 520 kts 53°
2026-04-29 21:53 47.30785 -72.77014 34905 ft 519 kts 54°
2026-04-29 21:54 47.34986 -72.68348 34902 ft 520 kts 54°
2026-04-29 21:54 47.39179 -72.59669 34907 ft 519 kts 54°
2026-04-29 21:55 47.43339 -72.51033 34909 ft 520 kts 54°
2026-04-29 21:55 47.47522 -72.42320 34903 ft 520 kts 54°
2026-04-29 21:56 47.51701 -72.33590 34903 ft 520 kts 54°
2026-04-29 21:56 47.55873 -72.24844 34905 ft 520 kts 54°
2026-04-29 21:57 47.60011 -72.16144 34897 ft 520 kts 54°
2026-04-29 21:57 47.64167 -72.07378 34897 ft 520 kts 54°
2026-04-29 21:58 47.68314 -71.98601 34901 ft 519 kts 54°
2026-04-29 21:58 47.72421 -71.89883 34901 ft 518 kts 54°
2026-04-29 21:59 47.76541 -71.81109 34900 ft 518 kts 54°
2026-04-29 21:59 47.80650 -71.72329 34898 ft 517 kts 54°
2026-04-29 22:00 47.84746 -71.63550 34912 ft 516 kts 54°
2026-04-29 22:00 47.88832 -71.54763 34898 ft 516 kts 54°
2026-04-29 22:01 47.92883 -71.46023 34891 ft 515 kts 54°
2026-04-29 22:01 47.96947 -71.37226 34894 ft 514 kts 54°
2026-04-29 22:02 48.00976 -71.28406 34898 ft 515 kts 57°
2026-04-29 22:02 48.04256 -71.18914 34901 ft 514 kts 66°
2026-04-29 22:03 48.07125 -71.09185 34905 ft 515 kts 66°
2026-04-29 22:03 48.10022 -70.99391 34907 ft 516 kts 66°
2026-04-29 22:04 48.12952 -70.89589 34899 ft 516 kts 65°
2026-04-29 22:04 48.15887 -70.79783 34913 ft 516 kts 65°
2026-04-29 22:05 48.18788 -70.70054 34907 ft 515 kts 65°
2026-04-29 22:06 48.23150 -70.55336 34904 ft 514 kts 65°
2026-04-29 22:06 48.26038 -70.45537 34902 ft 513 kts 66°
2026-04-29 22:07 48.28896 -70.35802 34916 ft 513 kts 66°
2026-04-29 22:07 48.31760 -70.26012 34899 ft 512 kts 66°
2026-04-29 22:08 48.34611 -70.16222 34910 ft 511 kts 66°
2026-04-29 22:08 48.37450 -70.06437 34912 ft 510 kts 66°
2026-04-29 22:09 48.40258 -69.96717 34908 ft 510 kts 66°
2026-04-29 22:09 48.43075 -69.86930 34920 ft 510 kts 66°
2026-04-29 22:10 48.45885 -69.77122 34918 ft 510 kts 66°
2026-04-29 22:10 48.48692 -69.67290 34917 ft 511 kts 66°
2026-04-29 22:11 48.51472 -69.57510 34925 ft 511 kts 66°
2026-04-29 22:11 48.54321 -69.47670 34923 ft 512 kts 63°
2026-04-29 22:12 48.58075 -69.38562 34937 ft 511 kts 52°
2026-04-29 22:12 48.62730 -69.30464 34941 ft 510 kts 46°
2026-04-29 22:13 48.67558 -69.22593 34934 ft 511 kts 46°
2026-04-29 22:13 48.72344 -69.14725 34941 ft 511 kts 46°
2026-04-29 22:14 48.77130 -69.06757 34944 ft 512 kts 47°
2026-04-29 22:14 48.81906 -68.98751 34939 ft 511 kts 47°
2026-04-29 22:15 48.86671 -68.90736 34947 ft 511 kts 47°
2026-04-29 22:15 48.91398 -68.82767 34963 ft 511 kts 48°
2026-04-29 22:16 48.96148 -68.74736 34957 ft 511 kts 48°
2026-04-29 22:16 49.00895 -68.66685 34953 ft 511 kts 48°
2026-04-29 22:17 49.05633 -68.58624 34957 ft 510 kts 48°
2026-04-29 22:17 49.10329 -68.50611 34955 ft 510 kts 48°
2026-04-29 22:18 49.15051 -68.42529 34963 ft 510 kts 48°
2026-04-29 22:18 49.19766 -68.34433 34962 ft 510 kts 48°
2026-04-29 22:19 49.24470 -68.26331 34958 ft 509 kts 48°
2026-04-29 22:19 49.29139 -68.18264 34953 ft 510 kts 49°
2026-04-29 22:20 49.33838 -68.10121 34950 ft 510 kts 49°
2026-04-29 22:20 49.38534 -68.01956 34965 ft 511 kts 49°
2026-04-29 22:21 49.43232 -67.93763 34967 ft 512 kts 49°
2026-04-29 22:21 49.47904 -67.85589 34972 ft 513 kts 49°
2026-04-29 22:22 49.52608 -67.77334 34973 ft 514 kts 49°
2026-04-29 22:22 49.57312 -67.69051 34976 ft 514 kts 49°
2026-04-29 22:23 49.62012 -67.60750 34980 ft 514 kts 49°
2026-04-29 22:23 49.66708 -67.52429 34980 ft 514 kts 49°
2026-04-29 22:24 49.71358 -67.44164 34989 ft 513 kts 49°
2026-04-29 22:24 49.76035 -67.35823 35008 ft 513 kts 49°
2026-04-29 22:25 49.80705 -67.27469 35004 ft 513 kts 50°
2026-04-29 22:25 49.85369 -67.19098 35004 ft 513 kts 50°
2026-04-29 22:26 49.89994 -67.10772 35019 ft 513 kts 50°
2026-04-29 22:26 49.94648 -67.02365 35023 ft 514 kts 50°
2026-04-29 22:27 49.99306 -66.93925 35023 ft 515 kts 50°
2026-04-29 22:27 50.03968 -66.85448 35036 ft 516 kts 51°
2026-04-29 22:28 50.08604 -66.76990 35032 ft 518 kts 51°
2026-04-29 22:28 50.13276 -66.68441 35033 ft 519 kts 51°
2026-04-29 22:29 50.17951 -66.59858 35038 ft 520 kts 51°
2026-04-29 22:29 50.22627 -66.51244 35039 ft 520 kts 51°
2026-04-29 22:30 50.27267 -66.42668 35037 ft 520 kts 51°
2026-04-29 22:30 50.31936 -66.34009 35044 ft 521 kts 51°
2026-04-29 22:31 50.36605 -66.25323 35007 ft 522 kts 52°
2026-04-29 22:31 50.41268 -66.16619 35043 ft 522 kts 52°
2026-04-29 22:32 50.45899 -66.07942 35055 ft 523 kts 52°
2026-04-29 22:32 50.50573 -65.99157 35055 ft 525 kts 52°
2026-04-29 22:33 50.55250 -65.90336 35054 ft 526 kts 52°
2026-04-29 22:33 50.59929 -65.81482 35061 ft 526 kts 52°
2026-04-29 22:34 50.64576 -65.72659 35043 ft 527 kts 52°
2026-04-29 22:34 50.69247 -65.63760 35057 ft 527 kts 53°
2026-04-29 22:35 50.73909 -65.54846 35062 ft 527 kts 53°
2026-04-29 22:35 50.78568 -65.45907 35063 ft 527 kts 53°
2026-04-29 22:36 50.83218 -65.36957 35048 ft 526 kts 53°
2026-04-29 22:36 50.87823 -65.28060 35048 ft 526 kts 53°
2026-04-29 22:37 50.92447 -65.19098 35068 ft 525 kts 53°
2026-04-29 22:37 50.97062 -65.10119 35066 ft 525 kts 53°
2026-04-29 22:38 51.01669 -65.01124 35062 ft 525 kts 53°
2026-04-29 22:38 51.06269 -64.92115 35075 ft 525 kts 53°
2026-04-29 22:39 51.10828 -64.83154 35068 ft 524 kts 53°
2026-04-29 22:39 51.15411 -64.74113 35066 ft 524 kts 53°
2026-04-29 22:40 51.19983 -64.65063 35074 ft 524 kts 53°
2026-04-29 22:40 51.24547 -64.55997 35073 ft 524 kts 53°
2026-04-29 22:41 51.29072 -64.46975 35069 ft 524 kts 53°
2026-04-29 22:41 51.33619 -64.37880 35072 ft 523 kts 54°
2026-04-29 22:42 51.38155 -64.28773 35066 ft 524 kts 54°
2026-04-29 22:42 51.42684 -64.19649 35078 ft 523 kts 54°
2026-04-29 22:43 51.47172 -64.10572 35070 ft 523 kts 54°
2026-04-29 22:43 51.51682 -64.01423 35067 ft 523 kts 54°
2026-04-29 22:44 51.56186 -63.92252 35070 ft 523 kts 54°
2026-04-29 22:44 51.60679 -63.83070 35076 ft 523 kts 54°
2026-04-29 22:45 51.65168 -63.73864 35073 ft 523 kts 54°
2026-04-29 22:45 51.69619 -63.64702 35070 ft 523 kts 54°
2026-04-29 22:46 51.74091 -63.55466 35057 ft 522 kts 54°
2026-04-29 22:46 51.78553 -63.46215 35065 ft 522 kts 54°
2026-04-29 22:47 51.83008 -63.36948 35077 ft 522 kts 54°
2026-04-29 22:47 51.87421 -63.27731 35076 ft 521 kts 54°
2026-04-29 22:48 51.91854 -63.18443 35051 ft 521 kts 54°
2026-04-29 22:48 51.96271 -63.09153 35063 ft 520 kts 54°
2026-04-29 22:49 52.00673 -62.99859 35063 ft 519 kts 54°
2026-04-29 22:49 52.05037 -62.90617 35075 ft 519 kts 54°
2026-04-29 22:50 52.09415 -62.81308 35067 ft 518 kts 54°
2026-04-29 22:50 52.13788 -62.71975 35065 ft 518 kts 54°
2026-04-29 22:51 52.18149 -62.62635 35067 ft 518 kts 54°
2026-04-29 22:51 52.24648 -62.48652 35063 ft 518 kts 54°
2026-04-29 22:52 52.28991 -62.39266 35058 ft 518 kts 54°
2026-04-29 22:52 52.33326 -62.29860 35059 ft 518 kts 54°
2026-04-29 22:53 52.37657 -62.20432 35049 ft 518 kts 55°
2026-04-29 22:53 52.41947 -62.11056 35052 ft 518 kts 55°
2026-04-29 22:54 52.46257 -62.01599 35050 ft 517 kts 54°
2026-04-29 22:54 52.50555 -61.92138 35050 ft 517 kts 54°
2026-04-29 22:55 52.54845 -61.82658 35053 ft 517 kts 54°
2026-04-29 22:55 52.59125 -61.73167 35047 ft 517 kts 54°
2026-04-29 22:56 52.63364 -61.63728 35043 ft 516 kts 54°
2026-04-29 22:56 52.67628 -61.54200 35044 ft 516 kts 54°
2026-04-29 22:57 52.71879 -61.44664 35047 ft 516 kts 55°
2026-04-29 22:57 52.76126 -61.35103 35044 ft 516 kts 55°
2026-04-29 22:58 52.80333 -61.25594 35039 ft 516 kts 54°
2026-04-29 22:58 52.84564 -61.15997 35038 ft 516 kts 54°
2026-04-29 22:59 52.88786 -61.06386 35037 ft 516 kts 54°
2026-04-29 22:59 52.93000 -60.96754 35033 ft 516 kts 55°
2026-04-29 23:00 52.97175 -60.87183 35037 ft 516 kts 54°
2026-04-29 23:00 53.01367 -60.77522 35032 ft 516 kts 54°
2026-04-29 23:01 53.05552 -60.67844 35017 ft 516 kts 55°
2026-04-29 23:01 53.09731 -60.58145 35006 ft 516 kts 55°
2026-04-29 23:02 53.13902 -60.48431 35002 ft 516 kts 56°
2026-04-29 23:02 53.18034 -60.38768 34990 ft 515 kts 56°
2026-04-29 23:03 53.22185 -60.29024 34986 ft 515 kts 56°
2026-04-29 23:03 53.26330 -60.19255 34987 ft 515 kts 56°
2026-04-29 23:04 53.30469 -60.09467 34995 ft 515 kts 57°
2026-04-29 23:04 53.34568 -59.99732 35017 ft 516 kts 57°
2026-04-29 23:05 53.38691 -59.89902 35017 ft 516 kts 57°
2026-04-29 23:05 53.42810 -59.80043 35014 ft 516 kts 57°
2026-04-29 23:06 53.46918 -59.70171 35007 ft 517 kts 59°
2026-04-29 23:06 53.51029 -59.60255 35024 ft 518 kts 59°
2026-04-29 23:07 53.55114 -59.50363 35022 ft 519 kts 59°
2026-04-29 23:07 53.59233 -59.40349 35022 ft 521 kts 59°
2026-04-29 23:08 53.63352 -59.30293 35001 ft 522 kts 60°
2026-04-29 23:08 53.67473 -59.20199 35010 ft 523 kts 60°
2026-04-29 23:09 53.71555 -59.10152 35020 ft 522 kts 60°
2026-04-29 23:09 53.75653 -59.00024 35015 ft 522 kts 60°
2026-04-29 23:10 53.79742 -58.89883 35013 ft 522 kts 60°
2026-04-29 23:10 53.83821 -58.79723 35002 ft 522 kts 60°
2026-04-29 23:11 53.87865 -58.69610 35001 ft 521 kts 60°
2026-04-29 23:11 53.91922 -58.59424 35006 ft 521 kts 60°
2026-04-29 23:12 53.95970 -58.49220 34979 ft 520 kts 60°
2026-04-29 23:12 53.99999 -58.39022 34982 ft 520 kts 60°
2026-04-29 23:13 54.04018 -58.28802 34996 ft 520 kts 60°
2026-04-29 23:13 54.08003 -58.18632 34989 ft 520 kts 61°
2026-04-29 23:14 54.12010 -58.08365 34997 ft 521 kts 61°
2026-04-29 23:14 54.16013 -57.98064 34982 ft 522 kts 61°
2026-04-29 23:15 54.20015 -57.87722 34989 ft 522 kts 61°
2026-04-29 23:15 54.23984 -57.77422 34992 ft 523 kts 61°
2026-04-29 23:16 54.27976 -57.67023 34992 ft 523 kts 61°
2026-04-29 23:16 54.31965 -57.56587 34993 ft 524 kts 61°
2026-04-29 23:17 54.35947 -57.46124 34998 ft 524 kts 61°
2026-04-29 23:17 54.39917 -57.35648 34991 ft 524 kts 61°
2026-04-29 23:18 54.43854 -57.25215 34960 ft 523 kts 61°
2026-04-29 23:18 54.47800 -57.14714 34993 ft 523 kts 61°
2026-04-29 23:19 54.49558 -57.09308 34992 ft 514 kts 73°
2026-04-29 23:19 54.50572 -57.03492 35010 ft 502 kts 88°
2026-04-29 23:19 54.52098 -56.91853 35020 ft 511 kts 72°
2026-04-29 23:20 54.55317 -56.80844 35017 ft 524 kts 64°
2026-04-29 23:20 54.59014 -56.69955 34996 ft 527 kts 64°
2026-04-29 23:21 54.62688 -56.58997 34990 ft 528 kts 64°
2026-04-29 23:21 54.66261 -56.47939 35008 ft 527 kts 65°
2026-04-29 23:22 54.69780 -56.36831 35000 ft 527 kts 65°
2026-04-29 23:22 54.73258 -56.25791 35004 ft 526 kts 65°
2026-04-29 23:23 54.76749 -56.14679 34976 ft 525 kts 65°
2026-04-29 23:23 54.80223 -56.03592 34998 ft 523 kts 65°
2026-04-29 23:24 54.83676 -55.92521 35007 ft 522 kts 65°
2026-04-29 23:24 54.87091 -55.81518 35010 ft 521 kts 65°
2026-04-29 23:25 54.90512 -55.70440 35013 ft 520 kts 65°
2026-04-29 23:25 54.93921 -55.59352 35010 ft 520 kts 65°
2026-04-29 23:26 54.97320 -55.48246 35015 ft 520 kts 65°
2026-04-29 23:26 55.00689 -55.37189 35022 ft 520 kts 65°
2026-04-29 23:27 55.04073 -55.26028 35023 ft 521 kts 65°
2026-04-29 23:27 55.07449 -55.14837 35019 ft 521 kts 65°
2026-04-29 23:28 55.10818 -55.03622 35023 ft 522 kts 65°
2026-04-29 23:28 55.14181 -54.92373 35011 ft 522 kts 64°
2026-04-29 23:29 55.17510 -54.81184 35024 ft 522 kts 65°
2026-04-29 23:29 55.20851 -54.69902 35028 ft 522 kts 65°
2026-04-29 23:30 55.24178 -54.58610 35018 ft 522 kts 64°
2026-04-29 23:30 55.27498 -54.47292 35029 ft 522 kts 64°
2026-04-29 23:31 55.30785 -54.36030 35027 ft 522 kts 65°
2026-04-29 23:31 55.34084 -54.24670 35027 ft 522 kts 65°
2026-04-29 23:32 55.37372 -54.13292 35023 ft 522 kts 64°
2026-04-29 23:32 55.40653 -54.01884 35025 ft 523 kts 64°
2026-04-29 23:33 55.43901 -53.90540 35033 ft 523 kts 65°
2026-04-29 23:33 55.47164 -53.79085 35033 ft 523 kts 65°
2026-04-29 23:34 55.50416 -53.67611 35030 ft 523 kts 65°
2026-04-29 23:34 55.53660 -53.56106 35031 ft 523 kts 64°
2026-04-29 23:35 55.56892 -53.44589 35041 ft 523 kts 64°
2026-04-29 23:35 55.60094 -53.33123 35036 ft 523 kts 65°
2026-04-29 23:36 55.63305 -53.21567 35036 ft 523 kts 65°
2026-04-29 23:36 55.66503 -53.09995 35038 ft 523 kts 64°
2026-04-29 23:37 55.69691 -52.98404 35045 ft 523 kts 64°
2026-04-29 23:37 55.72868 -52.86797 35044 ft 523 kts 65°
2026-04-29 23:38 55.76011 -52.75253 35043 ft 523 kts 65°
2026-04-29 23:38 55.79166 -52.63606 35043 ft 523 kts 65°
2026-04-29 23:39 55.82310 -52.51941 35044 ft 523 kts 65°
2026-04-29 23:39 55.85420 -52.40342 35050 ft 522 kts 65°
2026-04-29 23:40 55.88531 -52.28679 35049 ft 521 kts 65°
2026-04-29 23:40 55.91627 -52.17016 35051 ft 520 kts 65°
2026-04-29 23:41 55.94708 -52.05347 35050 ft 519 kts 65°
2026-04-29 23:41 55.97773 -51.93678 35062 ft 519 kts 65°
2026-04-29 23:42 56.00805 -51.82075 35061 ft 519 kts 65°
2026-04-29 23:42 56.03848 -51.70368 35060 ft 519 kts 65°
2026-04-29 23:43 56.06881 -51.58642 35055 ft 519 kts 65°
2026-04-29 23:43 56.09905 -51.46885 35059 ft 520 kts 65°
2026-04-29 23:44 56.12903 -51.35170 35065 ft 521 kts 65°
2026-04-29 23:44 56.15912 -51.23349 35066 ft 521 kts 65°
2026-04-29 23:45 56.18911 -51.11505 35056 ft 521 kts 65°
2026-04-29 23:45 56.21892 -50.99669 35067 ft 520 kts 65°
2026-04-29 23:46 56.24838 -50.87909 35068 ft 519 kts 65°
2026-04-29 23:46 56.27787 -50.76073 35070 ft 518 kts 65°
2026-04-29 23:47 56.30721 -50.64235 35067 ft 517 kts 65°
2026-04-29 23:47 56.33639 -50.52398 35066 ft 517 kts 65°
2026-04-29 23:48 56.36054 -50.42551 35078 ft 517 kts 65°
2026-04-29 23:48 56.39422 -50.28744 35076 ft 518 kts 65°
2026-04-29 23:49 56.42314 -50.16821 35134 ft 521 kts 65°
2026-04-29 23:49 56.43764 -50.10820 35327 ft 521 kts 65°
2026-04-29 23:49 56.44721 -50.06850 35541 ft 519 kts 65°
2026-04-29 23:50 56.46150 -50.00873 35847 ft 517 kts 67°
2026-04-29 23:50 56.47392 -49.94772 36037 ft 518 kts 73°
2026-04-29 23:50 56.49219 -49.82111 36205 ft 523 kts 75°
2026-04-29 23:51 56.50368 -49.73634 36390 ft 524 kts 76°
2026-04-29 23:51 56.50955 -49.69308 36509 ft 524 kts 75°
2026-04-29 23:51 56.51829 -49.62904 36645 ft 524 kts 75°
2026-04-29 23:52 56.53592 -49.50138 36832 ft 527 kts 75°
2026-04-29 23:52 56.54486 -49.43700 36957 ft 527 kts 75°
2026-04-29 23:52 56.55379 -49.37250 37025 ft 527 kts 75°
2026-04-29 23:53 56.57158 -49.24335 37087 ft 530 kts 75°
2026-04-29 23:53 56.58934 -49.11315 37096 ft 533 kts 75°
2026-04-29 23:54 56.60689 -48.98310 37107 ft 535 kts 75°
2026-04-29 23:54 56.62449 -48.85160 37082 ft 536 kts 75°
2026-04-29 23:55 56.64193 -48.72004 37089 ft 535 kts 75°
2026-04-29 23:55 56.65919 -48.58877 37096 ft 533 kts 75°
2026-04-29 23:56 56.67614 -48.45866 37099 ft 532 kts 75°
2026-04-29 23:56 56.69305 -48.32775 37099 ft 531 kts 75°
2026-04-29 23:57 56.70978 -48.19706 37108 ft 530 kts 75°
2026-04-29 23:57 56.72636 -48.06637 37109 ft 530 kts 75°
2026-04-29 23:58 56.74267 -47.93656 37104 ft 530 kts 75°
2026-04-29 23:58 56.75898 -47.80559 37100 ft 531 kts 75°
2026-04-29 23:59 56.77519 -47.67424 37117 ft 531 kts 75°
2026-04-29 23:59 56.79126 -47.54277 37114 ft 532 kts 75°
2026-04-30 00:00 56.80722 -47.41092 37123 ft 532 kts 75°
2026-04-30 00:00 56.82292 -47.27991 37127 ft 532 kts 75°
2026-04-30 00:01 56.83864 -47.14755 37128 ft 534 kts 75°
2026-04-30 00:01 56.85423 -47.01496 37127 ft 534 kts 75°
2026-04-30 00:02 56.86971 -46.88204 37131 ft 535 kts 75°
2026-04-30 00:02 56.88495 -46.74989 37117 ft 535 kts 75°
2026-04-30 00:03 56.90011 -46.61697 37122 ft 533 kts 75°
2026-04-30 00:03 56.91509 -46.48434 37133 ft 532 kts 76°
2026-04-30 00:04 56.92989 -46.35198 37135 ft 530 kts 76°
2026-04-30 00:04 56.94443 -46.22066 37136 ft 529 kts 76°
2026-04-30 00:05 56.95888 -46.08872 37147 ft 528 kts 76°
2026-04-30 00:05 56.97319 -45.95676 37150 ft 528 kts 76°
2026-04-30 00:06 56.98736 -45.82472 37156 ft 528 kts 76°
2026-04-30 00:06 57.00140 -45.69249 37141 ft 528 kts 76°
2026-04-30 00:07 57.01519 -45.56109 37156 ft 528 kts 76°
2026-04-30 00:07 57.02892 -45.42892 37158 ft 527 kts 76°
2026-04-30 00:08 57.04251 -45.29673 37162 ft 527 kts 76°
2026-04-30 00:08 57.05595 -45.16452 37177 ft 526 kts 76°
2026-04-30 00:09 57.06923 -45.03232 37162 ft 526 kts 76°
2026-04-30 00:09 57.08228 -44.90102 37162 ft 526 kts 76°
2026-04-30 00:10 57.09527 -44.76877 37173 ft 525 kts 76°
2026-04-30 00:10 57.10812 -44.63653 37159 ft 524 kts 77°
2026-04-30 00:11 57.12078 -44.50464 37191 ft 523 kts 76°
2026-04-30 00:11 57.13328 -44.37295 37180 ft 521 kts 77°
2026-04-30 00:12 57.14551 -44.24253 37175 ft 520 kts 77°
2026-04-30 00:12 57.15767 -44.11144 37178 ft 519 kts 77°
2026-04-30 00:13 57.16968 -43.98036 37191 ft 518 kts 77°
2026-04-30 00:13 57.18153 -43.84944 37184 ft 518 kts 77°
2026-04-30 00:14 57.19319 -43.71902 37192 ft 520 kts 77°
2026-04-30 00:14 57.20482 -43.58744 37194 ft 521 kts 77°
2026-04-30 00:15 57.21634 -43.45539 37190 ft 522 kts 77°
2026-04-30 00:15 57.22772 -43.32310 37191 ft 522 kts 77°
2026-04-30 00:16 57.23898 -43.19062 37193 ft 523 kts 77°
2026-04-30 00:16 57.25005 -43.05875 37186 ft 524 kts 77°
2026-04-30 00:17 57.26108 -42.92551 37193 ft 525 kts 77°
2026-04-30 00:17 57.27198 -42.79205 37180 ft 525 kts 77°
2026-04-30 00:18 57.28273 -42.65856 37187 ft 525 kts 77°
2026-04-30 00:18 57.29334 -42.52513 37193 ft 524 kts 77°
2026-04-30 00:19 57.30372 -42.39262 37204 ft 525 kts 77°
2026-04-30 00:19 57.31407 -42.25876 37199 ft 526 kts 77°
2026-04-30 00:20 57.32428 -42.12483 37191 ft 526 kts 77°
2026-04-30 00:20 57.33435 -41.99056 37189 ft 527 kts 77°
2026-04-30 00:21 57.34430 -41.85613 37202 ft 527 kts 78°
2026-04-30 00:21 57.35410 -41.72157 37228 ft 528 kts 77°
2026-04-30 00:22 57.36373 -41.58736 37198 ft 529 kts 78°
2026-04-30 00:22 57.37329 -41.45202 37202 ft 530 kts 78°
2026-04-30 00:23 57.38271 -41.31656 37197 ft 530 kts 78°
2026-04-30 00:23 57.39196 -41.18130 37191 ft 529 kts 78°
2026-04-30 00:24 57.40105 -41.04617 37249 ft 528 kts 78°
2026-04-30 00:24 57.40996 -40.91181 37205 ft 528 kts 78°
2026-04-30 00:25 57.41876 -40.77658 37206 ft 528 kts 78°
2026-04-30 00:25 57.42744 -40.64114 37205 ft 529 kts 78°
2026-04-30 00:26 57.43597 -40.50557 37209 ft 529 kts 78°
2026-04-30 00:26 57.44444 -40.36852 37209 ft 529 kts 78°
2026-04-30 00:27 57.45253 -40.23521 37210 ft 529 kts 79°
2026-04-30 00:27 57.46063 -40.09950 37208 ft 527 kts 79°
2026-04-30 00:28 57.46846 -39.96439 37203 ft 526 kts 80°
2026-04-30 00:28 57.47411 -39.82892 37204 ft 526 kts 82°
2026-04-30 00:29 57.47868 -39.69350 37203 ft 525 kts 82°
2026-04-30 00:29 57.48326 -39.55924 37211 ft 524 kts 82°
2026-04-30 00:30 57.48800 -39.42416 37204 ft 524 kts 81°
2026-04-30 00:30 57.49270 -39.28901 37211 ft 524 kts 82°
2026-04-30 00:31 57.49725 -39.15383 37230 ft 524 kts 82°
2026-04-30 00:31 57.50163 -39.01872 37210 ft 524 kts 82°
2026-04-30 00:32 57.50585 -38.88367 37238 ft 523 kts 82°
2026-04-30 00:32 57.50995 -38.74828 37224 ft 524 kts 82°
2026-04-30 00:33 57.51387 -38.61399 37216 ft 524 kts 82°
2026-04-30 00:33 57.51767 -38.47878 37218 ft 523 kts 82°
2026-04-30 00:34 57.52132 -38.34353 37225 ft 523 kts 82°
2026-04-30 00:34 57.52482 -38.20828 37207 ft 523 kts 82°
2026-04-30 00:35 57.52817 -38.07383 37217 ft 525 kts 82°
2026-04-30 00:35 57.53139 -37.93805 37227 ft 526 kts 82°
2026-04-30 00:36 57.53448 -37.80209 37223 ft 526 kts 83°
2026-04-30 00:36 57.53742 -37.66584 37216 ft 527 kts 83°
2026-04-30 00:37 57.54023 -37.52937 37220 ft 528 kts 83°
2026-04-30 00:37 57.54287 -37.39369 37240 ft 529 kts 83°
2026-04-30 00:38 57.54539 -37.25675 37228 ft 530 kts 83°
2026-04-30 00:38 57.54776 -37.11962 37222 ft 530 kts 83°
2026-04-30 00:39 57.54998 -36.98244 37218 ft 530 kts 83°
2026-04-30 00:39 57.55204 -36.84615 37218 ft 530 kts 84°
2026-04-30 00:40 57.55397 -36.70894 37225 ft 530 kts 84°
2026-04-30 00:40 57.55575 -36.57165 37232 ft 530 kts 84°
2026-04-30 00:41 57.55738 -36.43444 37219 ft 530 kts 84°
2026-04-30 00:41 57.55885 -36.29812 37227 ft 530 kts 84°
2026-04-30 00:42 57.56018 -36.16087 37226 ft 530 kts 84°
2026-04-30 00:42 57.56136 -36.02379 37223 ft 529 kts 84°
2026-04-30 00:43 57.56240 -35.88683 37231 ft 529 kts 85°
2026-04-30 00:43 57.56327 -35.75105 37227 ft 528 kts 85°
2026-04-30 00:44 57.56401 -35.61408 37220 ft 528 kts 85°
2026-04-30 00:44 57.56460 -35.47735 37230 ft 527 kts 85°
2026-04-30 00:45 57.56504 -35.34091 37228 ft 527 kts 85°
2026-04-30 00:45 57.56534 -35.20436 37260 ft 527 kts 86°
2026-04-30 00:46 57.56549 -35.06780 37220 ft 527 kts 86°
2026-04-30 00:46 57.56548 -34.93232 37232 ft 526 kts 86°
2026-04-30 00:47 57.56533 -34.79617 37212 ft 525 kts 86°
2026-04-30 00:47 57.56504 -34.66030 37233 ft 524 kts 86°
2026-04-30 00:48 57.56461 -34.52466 37226 ft 524 kts 86°
2026-04-30 00:48 57.56403 -34.38973 37233 ft 524 kts 87°
2026-04-30 00:49 57.56330 -34.25406 37229 ft 524 kts 87°
2026-04-30 00:49 57.56243 -34.11830 37232 ft 524 kts 87°
2026-04-30 00:50 57.56141 -33.98258 37220 ft 524 kts 88°
2026-04-30 00:50 57.56026 -33.84785 37220 ft 524 kts 88°
2026-04-30 00:51 57.55895 -33.71236 37249 ft 524 kts 88°
2026-04-30 00:51 57.55750 -33.57664 37231 ft 524 kts 88°
2026-04-30 00:52 57.55590 -33.44086 37223 ft 524 kts 89°
2026-04-30 00:52 57.55415 -33.30511 37226 ft 524 kts 89°
2026-04-30 00:53 57.55227 -33.17033 37229 ft 524 kts 89°
2026-04-30 00:53 57.55024 -33.03462 37254 ft 524 kts 89°
2026-04-30 00:54 57.54806 -32.89876 37224 ft 525 kts 90°
2026-04-30 00:54 57.54572 -32.76287 37231 ft 525 kts 90°
2026-04-30 00:55 57.54326 -32.62801 37221 ft 525 kts 90°
2026-04-30 00:55 57.53928 -32.42422 37219 ft 525 kts 90°
2026-04-30 00:56 57.53644 -32.28845 37222 ft 525 kts 90°
2026-04-30 00:56 57.53345 -32.15265 37222 ft 525 kts 90°
2026-04-30 00:57 57.53034 -32.01776 37222 ft 525 kts 90°
2026-04-30 00:57 57.52707 -31.88208 37224 ft 525 kts 90°
2026-04-30 00:58 57.52365 -31.74639 37222 ft 525 kts 91°
2026-04-30 00:58 57.52008 -31.61070 37227 ft 525 kts 91°
2026-04-30 00:59 57.51637 -31.47501 37230 ft 526 kts 91°
2026-04-30 00:59 57.51253 -31.34003 37234 ft 526 kts 91°
2026-04-30 01:00 57.50851 -31.20399 37225 ft 527 kts 91°
2026-04-30 01:00 57.50435 -31.06786 37223 ft 527 kts 91°
2026-04-30 01:01 57.50003 -30.93161 37224 ft 528 kts 92°
2026-04-30 01:01 57.49557 -30.79540 37237 ft 528 kts 92°
2026-04-30 01:02 57.49100 -30.66015 37223 ft 528 kts 92°
2026-04-30 01:02 57.48624 -30.52410 37223 ft 527 kts 92°
2026-04-30 01:03 57.48135 -30.38820 37220 ft 527 kts 92°
2026-04-30 01:03 57.47632 -30.25253 37226 ft 526 kts 93°
2026-04-30 01:04 57.47119 -30.11786 37224 ft 526 kts 93°
2026-04-30 01:04 57.46584 -29.98247 37226 ft 525 kts 94°
2026-04-30 01:05 57.45838 -29.84759 37204 ft 525 kts 96°
2026-04-30 01:05 57.44976 -29.71319 37225 ft 524 kts 96°
2026-04-30 01:06 57.44120 -29.57905 37231 ft 523 kts 96°
2026-04-30 01:06 57.43283 -29.44592 37225 ft 523 kts 96°
2026-04-30 01:07 57.42439 -29.31196 37242 ft 522 kts 97°
2026-04-30 01:07 57.41581 -29.17818 37226 ft 522 kts 97°
2026-04-30 01:08 57.40711 -29.04530 37233 ft 522 kts 97°
2026-04-30 01:08 57.39822 -28.91182 37230 ft 522 kts 97°
2026-04-30 01:09 57.38919 -28.77838 37230 ft 521 kts 97°
2026-04-30 01:09 57.38005 -28.64532 37234 ft 521 kts 98°
2026-04-30 01:10 57.37075 -28.51214 37232 ft 521 kts 98°
2026-04-30 01:10 57.36136 -28.37986 37239 ft 521 kts 98°
2026-04-30 01:11 57.35177 -28.24672 37231 ft 522 kts 98°
2026-04-30 01:11 57.34204 -28.11357 37231 ft 522 kts 98°
2026-04-30 01:12 57.33217 -27.98053 37228 ft 522 kts 98°
2026-04-30 01:12 57.32223 -27.84840 37229 ft 521 kts 99°
2026-04-30 01:13 57.31208 -27.71563 37236 ft 521 kts 99°
2026-04-30 01:13 57.30180 -27.58294 37236 ft 521 kts 99°
2026-04-30 01:14 57.29138 -27.45037 37238 ft 521 kts 100°
2026-04-30 01:14 57.28082 -27.31789 37239 ft 521 kts 100°
2026-04-30 01:15 57.27020 -27.18635 37242 ft 521 kts 100°
2026-04-30 01:15 57.25937 -27.05406 37238 ft 521 kts 101°
2026-04-30 01:16 57.24841 -26.92193 37218 ft 520 kts 101°
2026-04-30 01:16 57.23734 -26.79016 37233 ft 519 kts 101°
2026-04-30 01:17 57.22614 -26.65869 37236 ft 518 kts 101°
2026-04-30 01:17 57.21489 -26.52823 37234 ft 518 kts 101°
2026-04-30 01:18 57.20344 -26.39715 37222 ft 517 kts 102°
2026-04-30 01:18 57.19188 -26.26641 37236 ft 516 kts 102°
2026-04-30 01:19 57.18019 -26.13590 37234 ft 515 kts 102°
2026-04-30 01:19 57.16848 -26.00658 37236 ft 515 kts 102°
2026-04-30 01:20 57.15657 -25.87672 37233 ft 514 kts 103°
2026-04-30 01:20 57.14454 -25.74712 37244 ft 513 kts 103°
2026-04-30 01:21 57.13239 -25.61774 37236 ft 513 kts 104°
2026-04-30 01:21 57.12021 -25.48942 37219 ft 512 kts 104°
2026-04-30 01:22 57.10781 -25.36042 37237 ft 512 kts 104°
2026-04-30 01:22 57.09529 -25.23158 37235 ft 512 kts 104°
2026-04-30 01:23 57.08265 -25.10289 37220 ft 512 kts 104°
2026-04-30 01:23 57.06998 -24.97525 37219 ft 511 kts 105°
2026-04-30 01:24 57.05708 -24.84687 37228 ft 511 kts 105°
2026-04-30 01:24 57.04406 -24.71861 37232 ft 511 kts 105°
2026-04-30 01:25 57.03090 -24.59041 37235 ft 511 kts 105°
2026-04-30 01:25 57.01769 -24.46301 37232 ft 511 kts 105°
2026-04-30 01:26 57.00426 -24.33490 37233 ft 512 kts 105°
2026-04-30 01:26 56.99071 -24.20679 37219 ft 511 kts 107°
2026-04-30 01:27 56.97705 -24.07907 37192 ft 510 kts 107°
2026-04-30 01:27 56.96331 -23.95186 37222 ft 508 kts 107°
2026-04-30 01:28 56.94958 -23.82611 37225 ft 506 kts 107°
2026-04-30 01:28 56.93567 -23.70002 37228 ft 504 kts 107°
2026-04-30 01:29 56.92169 -23.57446 37223 ft 503 kts 107°
2026-04-30 01:29 56.90762 -23.44929 37226 ft 501 kts 108°
2026-04-30 01:30 56.89357 -23.32555 37221 ft 500 kts 108°
2026-04-30 01:30 56.87933 -23.20134 37224 ft 498 kts 108°
2026-04-30 01:31 56.86501 -23.07759 37200 ft 497 kts 108°
2026-04-30 01:31 56.85062 -22.95424 37209 ft 496 kts 108°
2026-04-30 01:32 56.83612 -22.83120 37219 ft 495 kts 108°
2026-04-30 01:32 56.82161 -22.70916 37220 ft 495 kts 108°
2026-04-30 01:33 56.80689 -22.58650 37216 ft 495 kts 108°
2026-04-30 01:33 56.79204 -22.46386 37215 ft 495 kts 108°
2026-04-30 01:34 56.77706 -22.34114 37211 ft 496 kts 108°
2026-04-30 01:34 56.76206 -22.21938 37202 ft 496 kts 108°
2026-04-30 01:35 56.74682 -22.09680 37180 ft 496 kts 108°
2026-04-30 01:35 56.73148 -21.97434 37197 ft 496 kts 108°
2026-04-30 01:36 56.71601 -21.85200 37205 ft 496 kts 108°
2026-04-30 01:36 56.70051 -21.73047 37204 ft 496 kts 109°
2026-04-30 01:37 56.68480 -21.60828 37198 ft 496 kts 109°
2026-04-30 01:37 56.66895 -21.48608 37198 ft 496 kts 109°
2026-04-30 01:38 56.65299 -21.36402 37174 ft 496 kts 109°
2026-04-30 01:38 56.63693 -21.24221 37171 ft 495 kts 108°
2026-04-30 01:39 56.62094 -21.12184 37188 ft 494 kts 109°
2026-04-30 01:39 56.60472 -21.00084 37194 ft 493 kts 109°
2026-04-30 01:40 56.58842 -20.88019 37182 ft 492 kts 109°
2026-04-30 01:40 56.57201 -20.75975 37183 ft 492 kts 109°
2026-04-30 01:41 56.55564 -20.64043 37183 ft 490 kts 109°
2026-04-30 01:41 56.53907 -20.52067 37186 ft 489 kts 109°
2026-04-30 01:42 56.52244 -20.40139 37186 ft 488 kts 109°
2026-04-30 01:42 56.50578 -20.28273 37181 ft 485 kts 109°
2026-04-30 01:43 56.48921 -20.16565 37189 ft 482 kts 109°
2026-04-30 01:43 56.47250 -20.04837 37190 ft 480 kts 109°
2026-04-30 01:44 56.45387 -19.93292 37186 ft 476 kts 111°
2026-04-30 01:44 56.43355 -19.81922 37196 ft 475 kts 112°
2026-04-30 01:45 56.41326 -19.70670 37201 ft 474 kts 112°
2026-04-30 01:45 56.39293 -19.59354 37202 ft 474 kts 112°
2026-04-30 01:46 56.37261 -19.48051 37191 ft 474 kts 111°
2026-04-30 01:46 56.35220 -19.36751 37206 ft 474 kts 112°
2026-04-30 01:47 56.33166 -19.25457 37198 ft 474 kts 112°
2026-04-30 01:47 56.31116 -19.14252 37209 ft 474 kts 112°
2026-04-30 01:48 56.29042 -19.02989 37209 ft 473 kts 112°
2026-04-30 01:48 56.26962 -18.91755 37208 ft 473 kts 112°
2026-04-30 01:49 56.24873 -18.80546 37210 ft 472 kts 112°
2026-04-30 01:49 56.22776 -18.69359 37192 ft 472 kts 111°
2026-04-30 01:50 56.20689 -18.58289 37200 ft 471 kts 111°
2026-04-30 01:50 56.18583 -18.47181 37213 ft 469 kts 111°
2026-04-30 01:51 56.16472 -18.36109 37212 ft 468 kts 111°
2026-04-30 01:51 56.14355 -18.25075 37215 ft 467 kts 111°
2026-04-30 01:52 56.12246 -18.14146 37216 ft 467 kts 112°
2026-04-30 01:52 56.10117 -18.03174 37222 ft 466 kts 112°
2026-04-30 01:53 56.07979 -17.92219 37220 ft 466 kts 112°
2026-04-30 01:53 56.05832 -17.81274 37220 ft 466 kts 111°
2026-04-30 01:54 56.03688 -17.70414 37219 ft 466 kts 111°
2026-04-30 01:54 56.01521 -17.59496 37223 ft 466 kts 111°
2026-04-30 01:55 55.99342 -17.48574 37226 ft 467 kts 111°
2026-04-30 01:55 55.97153 -17.37664 37224 ft 467 kts 112°
2026-04-30 01:56 55.94953 -17.26761 37225 ft 467 kts 112°
2026-04-30 01:56 55.92753 -17.15920 37222 ft 467 kts 111°
2026-04-30 01:57 55.90535 -17.05047 37237 ft 467 kts 111°
2026-04-30 01:57 55.88310 -16.94198 37225 ft 466 kts 111°
2026-04-30 01:58 55.86078 -16.83372 37228 ft 465 kts 111°
2026-04-30 01:58 55.83857 -16.72658 37227 ft 464 kts 111°
2026-04-30 01:59 55.80491 -16.56529 37233 ft 463 kts 111°
2026-04-30 02:00 55.78237 -16.45808 37239 ft 462 kts 111°
2026-04-30 02:00 55.75982 -16.35130 37231 ft 462 kts 111°
2026-04-30 02:01 55.73735 -16.24542 37235 ft 461 kts 111°
2026-04-30 02:01 55.71474 -16.13909 37226 ft 460 kts 111°
2026-04-30 02:02 55.69198 -16.03308 37234 ft 460 kts 111°
2026-04-30 02:02 55.66914 -15.92731 37234 ft 459 kts 111°
2026-04-30 02:03 55.64624 -15.82169 37243 ft 459 kts 111°
2026-04-30 02:03 55.62343 -15.71699 37233 ft 459 kts 111°
2026-04-30 02:04 55.60038 -15.61173 37232 ft 459 kts 111°
2026-04-30 02:04 55.57726 -15.50668 37239 ft 459 kts 111°
2026-04-30 02:05 55.55404 -15.40170 37235 ft 459 kts 111°
2026-04-30 02:05 55.53090 -15.29758 37232 ft 459 kts 111°
2026-04-30 02:06 55.50751 -15.19283 37231 ft 459 kts 112°
2026-04-30 02:06 55.48429 -15.08894 37233 ft 459 kts 110°
2026-04-30 02:07 55.46932 -14.97963 37237 ft 460 kts 99°
2026-04-30 02:07 55.46605 -14.86770 37231 ft 462 kts 91°
2026-04-30 02:08 55.46686 -14.75452 37223 ft 462 kts 91°
2026-04-30 02:08 55.46743 -14.64127 37224 ft 462 kts 91°
2026-04-30 02:09 55.46762 -14.52801 37220 ft 462 kts 92°
2026-04-30 02:09 55.46760 -14.41469 37225 ft 463 kts 92°
2026-04-30 02:10 55.46747 -14.30201 37226 ft 463 kts 92°
2026-04-30 02:10 55.46728 -14.18835 37221 ft 464 kts 92°
2026-04-30 02:11 55.46645 -14.07471 37220 ft 463 kts 97°
2026-04-30 02:11 55.45562 -13.96415 37218 ft 460 kts 107°
2026-04-30 02:12 55.43549 -13.85799 37209 ft 456 kts 104°
2026-04-30 02:12 55.42825 -13.74659 37222 ft 459 kts 98°
2026-04-30 02:13 55.41778 -13.63608 37224 ft 458 kts 107°
2026-04-30 02:13 55.40246 -13.54702 37227 ft 457 kts 111°
2026-04-30 02:14 55.38007 -13.44227 37231 ft 458 kts 114°
2026-04-30 02:14 55.35279 -13.32132 37212 ft 458 kts 114°
2026-04-30 02:15 55.33336 -13.23481 37217 ft 458 kts 114°
2026-04-30 02:15 55.31012 -13.13072 37222 ft 457 kts 114°
2026-04-30 02:16 55.28693 -13.02687 37223 ft 457 kts 114°
2026-04-30 02:16 55.26371 -12.92330 37222 ft 456 kts 114°
2026-04-30 02:17 55.24043 -12.82003 37212 ft 455 kts 114°
2026-04-30 02:17 55.21724 -12.71768 37209 ft 455 kts 114°
2026-04-30 02:18 55.19384 -12.61496 37215 ft 454 kts 114°
2026-04-30 02:18 55.17039 -12.51247 37221 ft 454 kts 114°
2026-04-30 02:19 55.14684 -12.41009 37218 ft 454 kts 115°
2026-04-30 02:19 55.12340 -12.30861 37223 ft 454 kts 115°
2026-04-30 02:20 55.09969 -12.20648 37217 ft 454 kts 115°
2026-04-30 02:20 55.07590 -12.10450 37217 ft 453 kts 115°
2026-04-30 02:21 55.05205 -12.00272 37220 ft 453 kts 115°
2026-04-30 02:21 55.02812 -11.90113 37223 ft 453 kts 115°
2026-04-30 02:22 55.00429 -11.80043 37223 ft 452 kts 115°
2026-04-30 02:22 54.98026 -11.69933 37208 ft 452 kts 115°
2026-04-30 02:23 54.95615 -11.59836 37221 ft 451 kts 115°
2026-04-30 02:23 54.93197 -11.49759 37224 ft 451 kts 115°
2026-04-30 02:24 54.90789 -11.39772 37218 ft 451 kts 115°
2026-04-30 02:24 54.88357 -11.29728 37213 ft 451 kts 115°
2026-04-30 02:25 54.85917 -11.19697 37224 ft 451 kts 116°
2026-04-30 02:25 54.83469 -11.09683 37222 ft 451 kts 116°
2026-04-30 02:26 54.81028 -10.99743 37218 ft 451 kts 116°
2026-04-30 02:26 54.78564 -10.89751 37213 ft 451 kts 116°
2026-04-30 02:27 54.76091 -10.79768 37217 ft 451 kts 116°
2026-04-30 02:27 54.73610 -10.69800 37215 ft 451 kts 116°
2026-04-30 02:28 54.71120 -10.59843 37218 ft 451 kts 116°
2026-04-30 02:28 54.68639 -10.49963 37217 ft 451 kts 116°
2026-04-30 02:29 54.66133 -10.40027 37218 ft 451 kts 116°
2026-04-30 02:29 54.63619 -10.30107 37216 ft 451 kts 116°
2026-04-30 02:30 54.61099 -10.20204 37207 ft 450 kts 116°
2026-04-30 02:30 54.58591 -10.10394 37224 ft 450 kts 116°
2026-04-30 02:31 54.56059 -10.00535 37222 ft 450 kts 116°
2026-04-30 02:31 54.53520 -9.90692 37216 ft 449 kts 116°
2026-04-30 02:32 54.50977 -9.80874 37216 ft 449 kts 117°
2026-04-30 02:32 54.48444 -9.71138 37218 ft 449 kts 117°
2026-04-30 02:33 54.45888 -9.61356 37218 ft 448 kts 117°
2026-04-30 02:33 54.43323 -9.51586 37224 ft 449 kts 117°
2026-04-30 02:34 54.40748 -9.41813 37230 ft 449 kts 117°
2026-04-30 02:34 54.38179 -9.32108 37237 ft 450 kts 117°
2026-04-30 02:35 54.35581 -9.22339 37225 ft 450 kts 117°
2026-04-30 02:35 54.32975 -9.12575 37226 ft 450 kts 117°
2026-04-30 02:36 54.30364 -9.02838 37212 ft 448 kts 117°
2026-04-30 02:36 54.27790 -8.93274 37219 ft 444 kts 117°
2026-04-30 02:37 54.25204 -8.83712 37227 ft 442 kts 118°
2026-04-30 02:37 54.22620 -8.74197 37222 ft 441 kts 118°
2026-04-30 02:38 54.20031 -8.64703 37227 ft 441 kts 118°
2026-04-30 02:38 54.17431 -8.55206 37230 ft 442 kts 118°
2026-04-30 02:39 54.14835 -8.45768 37220 ft 442 kts 118°
2026-04-30 02:39 54.12214 -8.36269 37231 ft 443 kts 118°
2026-04-30 02:40 54.09582 -8.26786 37223 ft 443 kts 118°
2026-04-30 02:40 54.06943 -8.17306 37238 ft 443 kts 118°
2026-04-30 02:41 54.04314 -8.07897 37228 ft 443 kts 118°
2026-04-30 02:41 54.01660 -7.98435 37239 ft 443 kts 118°
2026-04-30 02:42 53.99000 -7.88993 37223 ft 442 kts 118°
2026-04-30 02:42 53.96338 -7.79586 37225 ft 441 kts 118°
2026-04-30 02:43 53.93695 -7.70280 37237 ft 440 kts 118°
2026-04-30 02:43 53.91034 -7.60947 37236 ft 439 kts 118°
2026-04-30 02:44 53.88371 -7.51647 37238 ft 438 kts 118°
2026-04-30 02:44 53.85707 -7.42376 37238 ft 437 kts 118°
2026-04-30 02:45 53.83037 -7.33124 37231 ft 437 kts 118°
2026-04-30 02:45 53.80384 -7.23968 37233 ft 436 kts 118°
2026-04-30 02:46 53.77710 -7.14774 37239 ft 435 kts 118°
2026-04-30 02:46 53.75032 -7.05602 37246 ft 435 kts 118°
2026-04-30 02:47 53.72345 -6.96435 37243 ft 436 kts 118°
2026-04-30 02:47 53.69667 -6.87333 37251 ft 436 kts 118°
2026-04-30 02:48 53.66958 -6.78162 37246 ft 437 kts 118°
2026-04-30 02:48 53.64240 -6.68997 37244 ft 437 kts 119°
2026-04-30 02:49 53.61514 -6.59839 37253 ft 437 kts 119°
2026-04-30 02:49 53.58782 -6.50694 37256 ft 437 kts 119°
2026-04-30 02:50 53.56061 -6.41623 37240 ft 437 kts 119°
2026-04-30 02:50 53.53314 -6.32501 37241 ft 437 kts 119°
2026-04-30 02:51 53.50561 -6.23393 37257 ft 437 kts 119°
2026-04-30 02:51 53.47802 -6.14298 37251 ft 437 kts 119°
2026-04-30 02:52 53.45054 -6.05273 37250 ft 437 kts 119°
2026-04-30 02:52 53.42280 -5.96200 37246 ft 437 kts 120°
2026-04-30 02:53 53.39497 -5.87128 37243 ft 438 kts 120°
2026-04-30 02:53 53.36705 -5.78061 37249 ft 438 kts 120°
2026-04-30 02:54 53.33905 -5.68999 37242 ft 438 kts 120°
2026-04-30 02:54 53.31115 -5.60004 37240 ft 439 kts 120°
2026-04-30 02:55 53.28737 -5.50607 37228 ft 442 kts 108°
2026-04-30 02:55 53.27637 -5.40459 37237 ft 448 kts 96°
2026-04-30 02:56 53.27414 -5.30049 37239 ft 448 kts 95°
2026-04-30 02:56 53.27159 -5.19715 37237 ft 448 kts 96°
2026-04-30 02:57 53.26829 -5.09314 37220 ft 449 kts 96°
2026-04-30 02:57 53.26472 -4.98897 37236 ft 450 kts 96°
2026-04-30 02:58 53.26112 -4.88440 37243 ft 452 kts 96°
2026-04-30 02:58 53.25750 -4.78025 37241 ft 453 kts 97°
2026-04-30 02:59 53.25381 -4.67497 37240 ft 455 kts 96°
2026-04-30 02:59 53.25025 -4.56951 37226 ft 455 kts 96°
2026-04-30 03:00 53.24663 -4.46386 37234 ft 456 kts 96°
2026-04-30 03:00 53.24290 -4.35893 37243 ft 456 kts 96°
2026-04-30 03:01 53.23906 -4.25327 37241 ft 456 kts 96°
2026-04-30 03:01 53.23512 -4.14765 37240 ft 456 kts 96°
2026-04-30 03:02 53.23110 -4.04216 37237 ft 455 kts 96°
2026-04-30 03:02 53.22697 -3.93761 37244 ft 454 kts 96°
2026-04-30 03:03 53.22259 -3.83261 37265 ft 454 kts 96°
2026-04-30 03:03 53.21450 -3.67559 37281 ft 451 kts 104°
2026-04-30 03:04 53.19547 -3.57759 37289 ft 446 kts 117°
2026-04-30 03:04 53.16559 -3.48766 37289 ft 444 kts 122°
2026-04-30 03:05 53.13424 -3.39886 37297 ft 445 kts 122°
2026-04-30 03:05 53.10301 -3.30969 37298 ft 447 kts 122°
2026-04-30 03:06 53.07201 -3.22069 37306 ft 448 kts 122°
2026-04-30 03:06 53.04072 -3.13093 37302 ft 449 kts 122°
2026-04-30 03:07 53.00928 -3.04107 37295 ft 450 kts 122°
2026-04-30 03:07 52.97828 -2.95275 37290 ft 435 kts 122°
2026-04-30 03:08 52.94794 -2.86669 37305 ft 431 kts 122°
2026-04-30 03:08 52.91779 -2.78148 37296 ft 431 kts 122°
2026-04-30 03:09 52.88733 -2.69569 37298 ft 433 kts 122°
2026-04-30 03:09 52.85674 -2.60973 37295 ft 434 kts 122°
2026-04-30 03:10 52.82596 -2.52358 37296 ft 436 kts 122°
2026-04-30 03:10 52.79107 -2.44288 37293 ft 434 kts 133°
2026-04-30 03:11 52.75014 -2.36931 37295 ft 435 kts 133°
2026-04-30 03:11 52.70924 -2.29557 37300 ft 436 kts 133°
2026-04-30 03:12 52.66835 -2.22157 37304 ft 437 kts 133°
2026-04-30 03:12 52.62743 -2.14758 37304 ft 437 kts 133°
2026-04-30 03:13 52.58668 -2.07411 37305 ft 437 kts 133°
2026-04-30 03:13 52.54562 -2.00031 37300 ft 437 kts 133°
2026-04-30 03:14 52.50452 -1.92667 37300 ft 437 kts 133°
2026-04-30 03:14 52.46337 -1.85314 37295 ft 438 kts 133°
2026-04-30 03:15 52.42244 -1.78023 37293 ft 438 kts 133°
2026-04-30 03:15 52.38114 -1.70681 37295 ft 438 kts 133°
2026-04-30 03:16 52.33963 -1.63374 37294 ft 438 kts 134°
2026-04-30 03:16 52.29742 -1.56170 37313 ft 439 kts 134°
2026-04-30 03:17 52.25510 -1.48989 37323 ft 439 kts 134°
2026-04-30 03:17 52.21310 -1.41854 37322 ft 439 kts 134°
2026-04-30 03:18 52.17081 -1.34681 37320 ft 439 kts 134°
2026-04-30 03:18 52.12851 -1.27524 37322 ft 439 kts 134°
2026-04-30 03:19 52.08618 -1.20384 37311 ft 438 kts 134°
2026-04-30 03:19 52.04412 -1.13307 37302 ft 438 kts 134°
2026-04-30 03:20 52.00140 -1.06247 37278 ft 438 kts 135°
2026-04-30 03:20 51.95864 -0.99201 37275 ft 438 kts 134°
2026-04-30 03:21 51.91627 -0.92090 37274 ft 439 kts 134°
2026-04-30 03:21 51.87407 -0.85038 37273 ft 439 kts 134°
2026-04-30 03:22 51.83146 -0.77951 37269 ft 440 kts 134°
2026-04-30 03:22 51.78871 -0.70869 37273 ft 440 kts 134°
2026-04-30 03:23 51.74579 -0.63806 37272 ft 441 kts 134°
2026-04-30 03:23 51.70301 -0.56786 37248 ft 442 kts 134°
2026-04-30 03:24 51.65992 -0.49732 37241 ft 442 kts 134°
2026-04-30 03:24 51.61673 -0.42677 37238 ft 442 kts 134°
2026-04-30 03:25 51.57355 -0.35645 37239 ft 442 kts 134°
2026-04-30 03:25 51.53025 -0.28613 37242 ft 442 kts 134°
2026-04-30 03:26 51.48722 -0.21643 37242 ft 442 kts 134°
2026-04-30 03:26 51.44391 -0.14648 37247 ft 442 kts 134°
2026-04-30 03:27 51.40054 -0.07660 37245 ft 442 kts 134°
2026-04-30 03:27 51.35772 -0.00615 37230 ft 440 kts 127°
2026-04-30 03:28 51.34158 0.03526 37275 ft 439 kts 115°
2026-04-30 03:28 51.33076 0.08024 37273 ft 440 kts 106°
2026-04-30 03:28 51.32313 0.17719 37322 ft 443 kts 95°
2026-04-30 03:29 51.31941 0.27563 37342 ft 445 kts 95°
2026-04-30 03:29 51.31498 0.37454 37361 ft 447 kts 96°
2026-04-30 03:30 51.31017 0.47308 37353 ft 449 kts 96°
2026-04-30 03:30 51.30493 0.57243 37348 ft 449 kts 98°
2026-04-30 03:31 51.29154 0.66952 37337 ft 448 kts 107°
2026-04-30 03:31 51.27363 0.76482 37316 ft 448 kts 107°
2026-04-30 03:32 51.25587 0.86021 37293 ft 448 kts 107°
2026-04-30 03:32 51.23842 0.95475 37244 ft 447 kts 107°
2026-04-30 03:33 51.22085 1.04974 37257 ft 446 kts 107°
2026-04-30 03:33 51.20323 1.14450 37259 ft 445 kts 107°
2026-04-30 03:34 51.18559 1.23890 37261 ft 444 kts 107°
2026-04-30 03:34 51.17094 1.33435 37260 ft 444 kts 96°
2026-04-30 03:35 51.17178 1.43190 37263 ft 445 kts 82°
2026-04-30 03:35 51.18442 1.52859 37273 ft 446 kts 78°
2026-04-30 03:36 51.19770 1.62521 37277 ft 446 kts 79°
2026-04-30 03:36 51.21045 1.72212 37283 ft 447 kts 79°
2026-04-30 03:37 51.22288 1.81869 37275 ft 448 kts 79°
2026-04-30 03:37 51.23534 1.91604 37266 ft 449 kts 79°
2026-04-30 03:38 51.24386 2.01450 37284 ft 448 kts 88°
2026-04-30 03:38 51.24137 2.11375 37284 ft 448 kts 95°
2026-04-30 03:39 51.23628 2.21231 37279 ft 449 kts 95°
2026-04-30 03:39 51.23157 2.31174 37280 ft 450 kts 95°
2026-04-30 03:40 51.21770 2.40817 37285 ft 448 kts 114°
2026-04-30 03:40 51.18372 2.49118 37289 ft 450 kts 131°
2026-04-30 03:41 51.14221 2.56498 37283 ft 451 kts 130°
2026-04-30 03:41 51.10197 2.64131 37272 ft 449 kts 122°
2026-04-30 03:42 51.08834 2.68562 37271 ft 447 kts 105°
2026-04-30 03:42 51.08147 2.73344 37319 ft 444 kts 102°
2026-04-30 03:42 51.06794 2.82952 37302 ft 446 kts 103°
2026-04-30 03:43 51.05345 2.92561 37301 ft 448 kts 103°
2026-04-30 03:43 51.03871 3.02134 37295 ft 449 kts 103°
2026-04-30 03:44 51.02377 3.11782 37293 ft 450 kts 103°
2026-04-30 03:44 51.00877 3.21437 37291 ft 450 kts 103°
2026-04-30 03:45 50.99366 3.31108 36946 ft 456 kts 103°
2026-04-30 03:45 50.98611 3.35918 36236 ft 448 kts 103°
2026-04-30 03:45 50.97870 3.40634 35576 ft 438 kts 103°
2026-04-30 03:46 50.97129 3.45331 34839 ft 440 kts 103°
2026-04-30 03:46 50.96383 3.50041 34058 ft 441 kts 103°
2026-04-30 03:46 50.95656 3.54775 33188 ft 442 kts 103°
2026-04-30 03:46 50.94948 3.59519 32362 ft 443 kts 103°
2026-04-30 03:47 50.94244 3.64286 31518 ft 444 kts 103°
2026-04-30 03:47 50.93538 3.69068 30673 ft 446 kts 103°
2026-04-30 03:47 50.92838 3.73775 30018 ft 443 kts 103°
2026-04-30 03:47 50.92130 3.78505 29333 ft 440 kts 102°
2026-04-30 03:48 50.91424 3.83198 28723 ft 435 kts 102°
2026-04-30 03:48 50.90723 3.87834 28136 ft 431 kts 102°
2026-04-30 03:48 50.90026 3.92434 27527 ft 428 kts 102°
2026-04-30 03:48 50.89332 3.96995 26961 ft 424 kts 102°
2026-04-30 03:49 50.88641 4.01521 26379 ft 421 kts 102°
2026-04-30 03:49 50.87955 4.06008 25823 ft 419 kts 102°
2026-04-30 03:49 50.87268 4.10482 25265 ft 416 kts 102°
2026-04-30 03:49 50.86595 4.14862 24726 ft 414 kts 102°
2026-04-30 03:50 50.85914 4.19277 24178 ft 412 kts 102°
2026-04-30 03:50 50.85232 4.23683 23566 ft 411 kts 102°
2026-04-30 03:50 50.84553 4.28062 22971 ft 409 kts 102°
2026-04-30 03:50 50.83877 4.32412 22406 ft 406 kts 102°
2026-04-30 03:51 50.83203 4.36732 21865 ft 403 kts 102°
2026-04-30 03:51 50.82534 4.41012 21335 ft 399 kts 102°
2026-04-30 03:51 50.81868 4.45260 20815 ft 397 kts 103°
2026-04-30 03:51 50.81205 4.49480 20305 ft 394 kts 103°
2026-04-30 03:52 50.80553 4.53616 19794 ft 392 kts 103°
2026-04-30 03:52 50.79895 4.57782 19281 ft 390 kts 103°
2026-04-30 03:52 50.79238 4.61935 18767 ft 389 kts 103°
2026-04-30 03:52 50.78577 4.66096 17952 ft 393 kts 103°
2026-04-30 03:53 50.77913 4.70273 17537 ft 387 kts 103°
2026-04-30 03:53 50.77266 4.74318 17445 ft 371 kts 103°
2026-04-30 03:53 50.76661 4.78086 17221 ft 339 kts 103°
2026-04-30 03:53 50.76106 4.81537 17020 ft 310 kts 103°
2026-04-30 03:54 50.75596 4.84701 16830 ft 285 kts 102°
2026-04-30 03:54 50.75125 4.87627 16477 ft 267 kts 102°
2026-04-30 03:54 50.74684 4.90364 15989 ft 255 kts 102°
2026-04-30 03:54 50.74253 4.93048 15321 ft 251 kts 102°
2026-04-30 03:55 50.73823 4.95720 14595 ft 251 kts 103°
2026-04-30 03:55 50.73394 4.98377 13901 ft 248 kts 103°
2026-04-30 03:55 50.72970 5.00995 13361 ft 245 kts 103°
2026-04-30 03:55 50.72552 5.03572 12992 ft 240 kts 103°
2026-04-30 03:56 50.72141 5.06104 12650 ft 236 kts 103°
2026-04-30 03:56 50.71738 5.08575 12426 ft 225 kts 103°
2026-04-30 03:56 50.71353 5.10936 12400 ft 222 kts 103°
2026-04-30 03:56 50.70978 5.13231 12221 ft 214 kts 103°
2026-04-30 03:57 50.70616 5.15441 12010 ft 202 kts 103°
2026-04-30 03:57 50.70275 5.17519 11791 ft 189 kts 103°
2026-04-30 03:57 50.69949 5.19513 11647 ft 192 kts 103°
2026-04-30 03:57 50.69610 5.21582 11339 ft 195 kts 103°
2026-04-30 03:58 50.69277 5.23610 11217 ft 188 kts 103°
2026-04-30 03:58 50.68951 5.25595 11114 ft 186 kts 103°
2026-04-30 03:58 50.68626 5.27572 11036 ft 187 kts 103°
2026-04-30 03:58 50.68299 5.29560 10962 ft 188 kts 103°
2026-04-30 03:59 50.67973 5.31534 10884 ft 189 kts 103°
2026-04-30 03:59 50.67640 5.33552 10796 ft 191 kts 104°
2026-04-30 03:59 50.67303 5.35586 10711 ft 192 kts 104°
2026-04-30 03:59 50.66963 5.37635 10633 ft 194 kts 104°
2026-04-30 04:00 50.66621 5.39690 10543 ft 193 kts 104°
2026-04-30 04:00 50.66186 5.41650 10421 ft 188 kts 122°
2026-04-30 04:00 50.65180 5.42943 10363 ft 193 kts 152°
2026-04-30 04:00 50.63815 5.43293 10209 ft 208 kts 182°
2026-04-30 04:01 50.62457 5.42444 10114 ft 219 kts 214°
2026-04-30 04:01 50.61372 5.40760 10034 ft 221 kts 221°
2026-04-30 04:01 50.60284 5.39019 9801 ft 230 kts 220°
2026-04-30 04:01 50.59169 5.37236 9545 ft 226 kts 220°
2026-04-30 04:02 50.58082 5.35498 9285 ft 219 kts 220°
2026-04-30 04:02 50.57028 5.33816 9030 ft 213 kts 220°
2026-04-30 04:02 50.55984 5.32162 8831 ft 214 kts 220°
2026-04-30 04:02 50.54923 5.30485 8614 ft 218 kts 220°
2026-04-30 04:03 50.53851 5.28793 8385 ft 218 kts 220°
2026-04-30 04:03 50.52787 5.27112 8134 ft 216 kts 220°
2026-04-30 04:03 50.51748 5.25476 7905 ft 213 kts 220°
2026-04-30 04:03 50.50709 5.23841 7673 ft 210 kts 220°
2026-04-30 04:04 50.49682 5.22227 7449 ft 208 kts 220°
2026-04-30 04:04 50.48665 5.20630 7224 ft 206 kts 219°
2026-04-30 04:04 50.47738 5.18873 6750 ft 217 kts 242°
2026-04-30 04:04 50.47621 5.16525 6130 ft 222 kts 290°
2026-04-30 04:05 50.48520 5.14661 5557 ft 214 kts 334°
2026-04-30 04:05 50.49880 5.14094 5006 ft 197 kts 12°
2026-04-30 04:05 50.51089 5.14743 4677 ft 175 kts 39°
2026-04-30 04:05 50.51794 5.16166 4494 ft 169 kts 80°
2026-04-30 04:06 50.52064 5.17990 4419 ft 178 kts 77°
2026-04-30 04:06 50.52425 5.19860 4179 ft 177 kts 76°
2026-04-30 04:06 50.52787 5.21679 3931 ft 171 kts 76°
2026-04-30 04:06 50.53127 5.23434 3797 ft 164 kts 79°
2026-04-30 04:07 50.53277 5.25224 3818 ft 169 kts 96°
2026-04-30 04:07 50.53151 5.27055 3805 ft 170 kts 85°
2026-04-30 04:07 50.53683 5.28653 3770 ft 169 kts 47°
2026-04-30 04:08 50.55345 5.31124 3530 ft 167 kts 51°
2026-04-30 04:08 50.56149 5.32399 3045 ft 162 kts 52°
2026-04-30 04:08 50.56951 5.33670 2321 ft 165 kts 54°
2026-04-30 04:08 50.57706 5.34858 2176 ft 153 kts 57°
2026-04-30 04:09 50.58460 5.36058 1943 ft 153 kts 56°
2026-04-30 04:09 50.59199 5.37225 1737 ft 148 kts 55°
2026-04-30 04:09 50.59927 5.38379 1552 ft 150 kts 54°
2026-04-30 04:09 50.60664 5.39544 1320 ft 149 kts 51°
2026-04-30 04:10 50.61403 5.40642 1074 ft 145 kts 50°
2026-04-30 04:10 50.62106 5.41808 902 ft 148 kts 46°
2026-04-30 04:10 50.62836 5.42961 731 ft 148 kts 50°
2026-04-30 04:10 50.63553 5.44095 639 ft 138 kts 49°
2026-04-30 04:11 50.64117 5.45007 603 ft 91 kts 47°
2026-04-30 04:11 50.64430 5.45496 615 ft 28 kts 46°
2026-04-30 04:11 50.64536 5.45669 618 ft 22 kts 45°
2026-04-30 04:11 50.64643 5.45840 632 ft 22 kts 45°
2026-04-30 04:12 50.64748 5.46008 614 ft 17 kts 47°
2026-04-30 04:12 50.64749 5.46130 613 ft 12 kts 131°
2026-04-30 04:12 50.64680 5.46208 632 ft 12 kts 168°
2026-04-30 04:12 50.64606 5.46147 632 ft 12 kts 223°
2026-04-30 04:13 50.64543 5.46055 630 ft 12 kts 221°
2026-04-30 04:13 50.64481 5.45957 620 ft 12 kts 226°
2026-04-30 04:13 50.64421 5.45859 632 ft 12 kts 226°
2026-04-30 04:13 50.64360 5.45761 626 ft 12 kts 225°
2026-04-30 04:14 50.64299 5.45665 627 ft 12 kts 224°
2026-04-30 04:14 50.64236 5.45569 633 ft 12 kts 224°
2026-04-30 04:14 50.64177 5.45472 620 ft 12 kts 227°
2026-04-30 04:14 50.64117 5.45373 621 ft 12 kts 225°
2026-04-30 04:15 50.64030 5.45234 632 ft 21 kts 225°
2026-04-30 04:15 50.63928 5.45070 631 ft 21 kts 225°
2026-04-30 04:15 50.63825 5.44907 626 ft 21 kts 225°
2026-04-30 04:15 50.63740 5.44774 632 ft 7 kts 224°
2026-04-30 04:16 50.63734 5.44765 621 ft 0 kts 223°
2026-04-30 04:16 50.63725 5.44751 621 ft 6 kts 223°
2026-04-30 04:16 50.63688 5.44697 621 ft 11 kts 224°
2026-04-30 04:17 50.63637 5.44618 629 ft 15 kts 222°
2026-04-30 04:17 50.63611 5.44581 621 ft 4 kts 221°
2026-04-30 04:17 50.63574 5.44596 634 ft 2 kts 144°
2026-04-30 04:17 50.63563 5.44609 621 ft 2 kts 142°
2026-04-30 04:18 50.63551 5.44626 621 ft 3 kts 136°
2026-04-30 04:18 50.63543 5.44639 621 ft 1 kts 135°
2026-04-30 04:18 50.63538 5.44647 621 ft 1 kts 135°
2026-04-30 04:18 50.63534 5.44652 621 ft 0 kts 136°